Location: Byhalia Creek
(34.8270°N, 89.8040°W)
Time: 20:29:34
(UTC+00:00)

BREEZE-M DEB (TANK) - Pass Details

Date: 22 April 2026
Orbit: 326 x 14620 km, 49.6° (Epoch: 20 May)

Event Time Altitude Azimuth Distance (km) Brightness Sun altitude
Rises 02:44:53 0° 308° (NW) 4,567 9.4 -24.5°
Reaches altitude 10° 02:49:09 10° 310° (NW) 2,490 7.7 -25.2°
Enters shadow 02:52:51 44° 322° (NW) 694 4.2 -25.8°
